Location: Newark
(21.1200°N, 73.4000°E)
Time: 04:22:06
(UTC+00:00)

Courier 1B Rocket - Pass Details

Date: 24 January 2020
Orbit: 920 x 1202 km, 28.2° (Epoch: 19 February)

Event Time Altitude Azimuth Distance (km) Brightness Sun altitude
Rises 14:02:02 0° 276° (W) 3,562 9.3 -16.6°
Reaches altitude 10° 14:05:06 10° 264° (W) 2,605 8.5 -17.3°
Maximum altitude 14:10:05 25° 210° (SSW) 1,747 6.8 -18.4°
Drops below altitude 10° 14:15:06 10° 156° (SSE) 2,624 7.2 -19.5°
Sets 14:18:13 0° 144° (SE) 3,593 7.7 -20.2°
